This is the latest recevied weather packets stored in our database for station/object WC4PEM-1. If no packets are shown the sender has not sent any weather packets the latest 10 day(s).
| Time | Temp. | Humidity | Pressure | Rain* | Wind** | Luminosity | Snow |
|---|---|---|---|---|---|---|---|
| 1787746808 | 25° C | 83% | 1017 hPa | 0 mm | - | 60 W/m² | - |
| 1787746508 | 25° C | 84% | 1016.9 hPa | 0 mm | - | 56 W/m² | - |
| 1787746334 | 25° C | 85% | 1016.8 hPa | 0 mm | - | 54 W/m² | - |
| 1787746208 | 25° C | 85% | 1016.8 hPa | 0 mm | - | 54 W/m² | - |
| 1787745981 | 24.44° C | 86% | 1016.7 hPa | 0 mm | - | 54 W/m² | - |
| 1787745908 | 24.44° C | 86% | 1016.7 hPa | 0 mm | - | 54 W/m² | - |
| 1787745670 | 24.44° C | 86% | 1016.5 hPa | 0 mm | - | 84 W/m² | - |
| 1787745608 | 24.44° C | 86% | 1016.5 hPa | 0 mm | - | 84 W/m² | - |
| 1787745308 | 24.44° C | 86% | 1016.5 hPa | 0 mm | - | 47 W/m² | - |
| 1787745115 | 23.89° C | 87% | 1016.3 hPa | 0 mm | - | 42 W/m² | - |
| 1787745008 | 23.89° C | 87% | 1016.3 hPa | 0 mm | - | 42 W/m² | - |
| 1787744708 | 23.89° C | 87% | 1016.2 hPa | 0 mm | - | 44 W/m² | - |
| 1787744499 | 23.89° C | 87% | 1016.2 hPa | 0 mm | - | 35 W/m² | - |
| 1787744408 | 23.89° C | 87% | 1016.2 hPa | 0 mm | - | 35 W/m² | - |
| 1787744108 | 23.89° C | 88% | 1016.1 hPa | 0 mm | - | 26 W/m² | - |
| 1787743808 | 23.33° C | 88% | 1016 hPa | 0 mm | - | 21 W/m² | - |
| 1787743593 | 23.33° C | 87% | 1016 hPa | 0 mm | - | 14 W/m² | - |
| 1787743508 | 23.33° C | 87% | 1016 hPa | 0 mm | - | 14 W/m² | - |
| 1787743208 | 23.33° C | 87% | 1015.9 hPa | 0 mm | - | 9 W/m² | - |
| 1787742912 | 23.33° C | 87% | 1015.9 hPa | 0 mm | - | 5 W/m² | - |
| 1787742706 | 23.33° C | 88% | 1015.7 hPa | 0 mm | - | 0 W/m² | - |
| 1787742608 | 23.33° C | 88% | 1015.7 hPa | 0 mm | - | 0 W/m² | - |
| 1787742308 | 23.33° C | 87% | 1015.8 hPa | 0 mm | - | 0 W/m² | - |
| 1787742008 | 23.33° C | 87% | 1015.7 hPa | 0 mm | - | 0 W/m² | - |
| 1787741708 | 23.33° C | 87% | 1015.6 hPa | 0 mm | - | 0 W/m² | - |
* Rain latest hour (hover to see other rain measurements)
** Current wind speed in m/s (hover to see current wind gust speed)